AEE683 LIPE-LGAV

Flight info

Callsign AEE683
Flight time N/A
Altitude 37000
Route PELEG DCT BAGNO DCT URIPI DCT DIVKU DCT NOSTO UN7 NEMES
Aircraft A320/M-SDE3FGHIRWY/LB1

Departure

Time 2026-04-28 13:33
Airport Bologna Guglielmo Marconi Airport (LIPE)

Arrival

Time N/A
Airport Athens Eleftherios Venizelos International Airport (LGAV)
Time Latitude Longitude Altitude Speed Heading
2026-04-28 13:02 44.53031 11.29427 131 ft 0 kts 207°
2026-04-28 13:21 44.53033 11.29428 126 ft 2 kts 207°
2026-04-28 13:22 44.53056 11.29445 128 ft 4 kts 204°
2026-04-28 13:22 44.53074 11.29455 129 ft 4 kts 166°
2026-04-28 13:22 44.53092 11.29435 127 ft 4 kts 118°
2026-04-28 13:22 44.53089 11.29442 128 ft 4 kts 117°
2026-04-28 13:23 44.53086 11.29451 127 ft 0 kts 116°
2026-04-28 13:26 44.53084 11.29457 126 ft 2 kts 116°
2026-04-28 13:26 44.53074 11.29484 128 ft 4 kts 116°
2026-04-28 13:26 44.53059 11.29533 126 ft 6 kts 104°
2026-04-28 13:27 44.53093 11.29558 130 ft 8 kts 325°
2026-04-28 13:27 44.53127 11.29475 127 ft 12 kts 297°
2026-04-28 13:27 44.53172 11.29351 129 ft 16 kts 296°
2026-04-28 13:27 44.53219 11.29221 130 ft 14 kts 297°
2026-04-28 13:28 44.53267 11.29089 126 ft 16 kts 297°
2026-04-28 13:28 44.53321 11.28938 127 ft 19 kts 296°
2026-04-28 13:28 44.53383 11.28766 127 ft 21 kts 296°
2026-04-28 13:28 44.53452 11.28575 126 ft 23 kts 297°
2026-04-28 13:29 44.53527 11.28365 128 ft 25 kts 297°
2026-04-28 13:29 44.53609 11.28138 127 ft 27 kts 296°
2026-04-28 13:29 44.53688 11.27917 127 ft 24 kts 296°
2026-04-28 13:29 44.53767 11.27698 126 ft 26 kts 297°
2026-04-28 13:30 44.53852 11.27467 129 ft 25 kts 297°
2026-04-28 13:30 44.53871 11.27413 128 ft 0 kts 296°
2026-04-28 13:30 44.53871 11.27412 128 ft 1 kts 296°
2026-04-28 13:31 44.53915 11.27327 130 ft 10 kts 323°
2026-04-28 13:31 44.53984 11.27264 128 ft 14 kts 327°
2026-04-28 13:31 44.54074 11.27214 130 ft 15 kts 15°
2026-04-28 13:32 44.54094 11.27341 125 ft 16 kts 116°
2026-04-28 13:32 44.54012 11.27570 128 ft 49 kts 116°
2026-04-28 13:32 44.53759 11.28273 126 ft 111 kts 116°
2026-04-28 13:32 44.53335 11.29446 134 ft 157 kts 117°
2026-04-28 13:33 44.52803 11.30880 488 ft 168 kts 117°
2026-04-28 13:33 44.52439 11.32438 1004 ft 172 kts 94°
2026-04-28 13:33 44.52561 11.34103 1696 ft 173 kts 73°
2026-04-28 13:33 44.53133 11.35587 2295 ft 176 kts 54°
2026-04-28 13:34 44.54099 11.36658 2852 ft 182 kts 30°
2026-04-28 13:34 44.55331 11.37158 3415 ft 189 kts
2026-04-28 13:34 44.56728 11.37300 3697 ft 212 kts
2026-04-28 13:34 44.58243 11.37574 4219 ft 222 kts 12°
2026-04-28 13:35 44.59737 11.38154 4991 ft 224 kts 20°
2026-04-28 13:35 44.61174 11.38992 5685 ft 228 kts 27°
2026-04-28 13:35 44.62566 11.40085 6427 ft 230 kts 30°
2026-04-28 13:35 44.63949 11.41234 7184 ft 232 kts 30°
2026-04-28 13:36 44.65312 11.42481 7801 ft 242 kts 44°
2026-04-28 13:36 44.66143 11.44608 8171 ft 261 kts 83°
2026-04-28 13:36 44.65920 11.47139 8828 ft 267 kts 116°
2026-04-28 13:36 44.64758 11.49123 9577 ft 266 kts 150°
2026-04-28 13:37 44.63020 11.49886 10296 ft 264 kts 184°
2026-04-28 13:37 44.61258 11.49241 11003 ft 264 kts 205°
2026-04-28 13:37 44.59566 11.48180 11722 ft 268 kts 206°
2026-04-28 13:37 44.57885 11.47103 12450 ft 271 kts 206°
2026-04-28 13:38 44.56162 11.45999 13184 ft 274 kts 205°
2026-04-28 13:38 44.54318 11.45197 13873 ft 280 kts 191°
2026-04-28 13:38 44.52311 11.45076 14170 ft 302 kts 177°
2026-04-28 13:38 44.50137 11.45384 14305 ft 325 kts 176°
2026-04-28 13:39 44.47816 11.45723 14434 ft 346 kts 176°
2026-04-28 13:39 44.45366 11.46079 14728 ft 359 kts 176°
2026-04-28 13:39 44.42858 11.46437 15273 ft 365 kts 176°
2026-04-28 13:39 44.40325 11.46794 15836 ft 368 kts 176°
2026-04-28 13:40 44.37758 11.47156 16420 ft 372 kts 177°
2026-04-28 13:40 44.35169 11.47521 16998 ft 376 kts 177°
2026-04-28 13:40 44.32583 11.48152 17556 ft 383 kts 166°
2026-04-28 13:40 44.30136 11.49704 18120 ft 392 kts 150°
2026-04-28 13:41 44.28034 11.52177 18663 ft 401 kts 133°
2026-04-28 13:41 44.26463 11.55420 19160 ft 408 kts 117°
2026-04-28 13:41 44.25527 11.59177 19658 ft 413 kts 106°
2026-04-28 13:41 44.24759 11.63052 20140 ft 416 kts 109°
2026-04-28 13:42 44.23586 11.66678 20601 ft 417 kts 123°
2026-04-28 13:42 44.21809 11.69921 21081 ft 416 kts 137°
2026-04-28 13:42 44.19605 11.72447 21539 ft 415 kts 150°
2026-04-28 13:42 44.17037 11.74249 21994 ft 413 kts 163°
2026-04-28 13:43 44.14270 11.75222 22433 ft 410 kts 175°
2026-04-28 13:43 44.11442 11.75778 22917 ft 412 kts 176°
2026-04-28 13:43 44.08592 11.76339 23380 ft 415 kts 176°
2026-04-28 13:43 44.05722 11.76908 23807 ft 418 kts 175°
2026-04-28 13:44 44.02834 11.77484 24192 ft 421 kts 175°
2026-04-28 13:44 43.99927 11.78064 24560 ft 423 kts 175°
2026-04-28 13:44 43.97003 11.78644 24930 ft 426 kts 175°
2026-04-28 13:44 43.94071 11.79322 25334 ft 430 kts 169°
2026-04-28 13:45 43.91215 11.80657 25715 ft 437 kts 159°
2026-04-28 13:45 43.88550 11.82748 26072 ft 444 kts 147°
2026-04-28 13:45 43.86183 11.85540 26418 ft 450 kts 136°
2026-04-28 13:45 43.84170 11.88893 26761 ft 455 kts 130°
2026-04-28 13:46 43.82223 11.92359 27123 ft 457 kts 130°
2026-04-28 13:46 43.80260 11.95839 27501 ft 460 kts 130°
2026-04-28 13:46 43.78283 11.99333 27885 ft 462 kts 130°
2026-04-28 13:46 43.76296 12.02838 28287 ft 464 kts 130°
2026-04-28 13:47 43.74299 12.06360 28668 ft 467 kts 130°
2026-04-28 13:47 43.72291 12.09900 29015 ft 469 kts 130°
2026-04-28 13:47 43.70261 12.13474 29373 ft 472 kts 130°
2026-04-28 13:47 43.68247 12.17017 29706 ft 474 kts 130°
2026-04-28 13:48 43.66201 12.20611 30102 ft 475 kts 130°
2026-04-28 13:48 43.64161 12.24191 30529 ft 474 kts 130°
2026-04-28 13:48 43.62124 12.27761 30939 ft 473 kts 130°
2026-04-28 13:48 43.60082 12.31332 31358 ft 472 kts 130°
2026-04-28 13:49 43.58045 12.34884 31768 ft 472 kts 130°
2026-04-28 13:49 43.56012 12.38428 32215 ft 471 kts 130°
2026-04-28 13:49 43.53983 12.41966 32645 ft 470 kts 130°
2026-04-28 13:49 43.51962 12.45487 33056 ft 469 kts 130°
2026-04-28 13:50 43.49933 12.49015 33461 ft 468 kts 130°
2026-04-28 13:50 43.47911 12.52528 33869 ft 468 kts 130°
2026-04-28 13:50 43.45890 12.56037 34251 ft 468 kts 130°
2026-04-28 13:50 43.43868 12.59543 34610 ft 467 kts 130°
2026-04-28 13:51 43.41870 12.63001 34898 ft 467 kts 130°
2026-04-28 13:51 43.39848 12.66496 35205 ft 467 kts 130°
2026-04-28 13:51 43.37823 12.69990 35514 ft 467 kts 130°
2026-04-28 13:51 43.35793 12.73484 35838 ft 467 kts 130°
2026-04-28 13:52 43.33769 12.76970 36147 ft 467 kts 130°
2026-04-28 13:52 43.31746 12.80460 36443 ft 467 kts 130°
2026-04-28 13:52 43.29729 12.83939 36709 ft 467 kts 130°
2026-04-28 13:52 43.27705 12.87420 36979 ft 467 kts 130°
2026-04-28 13:53 43.23613 12.94422 37040 ft 472 kts 130°
2026-04-28 13:53 43.19493 13.01453 37041 ft 473 kts 130°
2026-04-28 13:54 43.15363 13.08495 37047 ft 474 kts 130°
2026-04-28 13:54 43.11260 13.15472 37049 ft 474 kts 130°
2026-04-28 13:55 43.07119 13.22503 37043 ft 474 kts 130°
2026-04-28 13:55 43.02989 13.29479 37038 ft 474 kts 130°
2026-04-28 13:56 42.98843 13.36492 37050 ft 474 kts 130°
2026-04-28 13:56 42.94695 13.43488 37052 ft 474 kts 130°
2026-04-28 13:57 42.90529 13.50476 37052 ft 474 kts 130°
2026-04-28 13:57 42.86368 13.57454 37061 ft 474 kts 130°
2026-04-28 13:58 42.82909 13.63255 37060 ft 474 kts 130°
2026-04-28 13:58 42.78752 13.70212 37064 ft 474 kts 130°
2026-04-28 13:59 42.74578 13.77152 37065 ft 474 kts 130°
2026-04-28 13:59 42.70396 13.84080 37067 ft 474 kts 130°
2026-04-28 14:00 42.66219 13.91015 37061 ft 474 kts 130°
2026-04-28 14:00 42.62038 13.97943 37078 ft 474 kts 130°
2026-04-28 14:01 42.57844 14.04857 37062 ft 474 kts 130°
2026-04-28 14:01 42.53674 14.11720 37050 ft 474 kts 130°
2026-04-28 14:02 42.49471 14.18627 37048 ft 474 kts 130°
2026-04-28 14:02 42.45263 14.25525 37039 ft 474 kts 130°
2026-04-28 14:03 42.41057 14.32406 37041 ft 474 kts 130°
2026-04-28 14:03 42.36842 14.39276 37046 ft 474 kts 130°
2026-04-28 14:04 42.32648 14.46101 37049 ft 474 kts 130°
2026-04-28 14:04 42.28429 14.52954 37050 ft 474 kts 130°
2026-04-28 14:05 42.24209 14.59795 37057 ft 474 kts 130°
2026-04-28 14:05 42.19981 14.66626 37052 ft 474 kts 131°
2026-04-28 14:06 42.15750 14.73447 37059 ft 473 kts 131°
2026-04-28 14:06 42.11527 14.80244 37057 ft 473 kts 131°
2026-04-28 14:07 42.07298 14.87037 37056 ft 473 kts 131°
2026-04-28 14:07 42.03084 14.93769 37046 ft 473 kts 131°
2026-04-28 14:08 41.98847 15.00538 37047 ft 473 kts 131°
2026-04-28 14:08 41.94609 15.07313 37046 ft 473 kts 131°
2026-04-28 14:09 41.90365 15.14061 37047 ft 473 kts 131°
2026-04-28 14:09 41.86138 15.20822 37050 ft 473 kts 129°
2026-04-28 14:10 41.82116 15.27801 37045 ft 473 kts 127°
2026-04-28 14:10 41.78202 15.34843 37053 ft 473 kts 127°
2026-04-28 14:11 41.74234 15.41874 37055 ft 473 kts 128°
2026-04-28 14:11 41.70219 15.48853 37048 ft 473 kts 128°
2026-04-28 14:12 41.66187 15.55812 37048 ft 473 kts 128°
2026-04-28 14:12 41.62165 15.62777 37045 ft 473 kts 128°
2026-04-28 14:13 41.58151 15.69737 37047 ft 473 kts 128°
2026-04-28 14:13 41.54120 15.76697 37047 ft 473 kts 128°
2026-04-28 14:14 41.50085 15.83634 37028 ft 473 kts 128°
2026-04-28 14:14 41.46243 15.90760 37055 ft 473 kts 124°
2026-04-28 14:15 41.42646 15.98092 37065 ft 472 kts 123°
2026-04-28 14:15 41.39064 16.05375 37076 ft 472 kts 124°
2026-04-28 14:16 41.35390 16.12618 37074 ft 472 kts 124°
2026-04-28 14:16 41.31667 16.19836 37072 ft 472 kts 124°
2026-04-28 14:17 41.27962 16.27044 37080 ft 472 kts 124°
2026-04-28 14:17 41.24255 16.34267 37079 ft 472 kts 124°
2026-04-28 14:18 41.20544 16.41483 37075 ft 472 kts 124°
2026-04-28 14:18 41.16837 16.48681 37070 ft 472 kts 124°
2026-04-28 14:19 41.13130 16.55861 37075 ft 472 kts 124°
2026-04-28 14:19 41.09412 16.63037 37072 ft 472 kts 124°
2026-04-28 14:20 41.05687 16.70201 37074 ft 472 kts 125°
2026-04-28 14:20 41.01960 16.77359 37076 ft 472 kts 125°
2026-04-28 14:21 40.98251 16.84473 37082 ft 472 kts 125°
2026-04-28 14:21 40.94510 16.91625 37103 ft 472 kts 125°
2026-04-28 14:22 40.90782 16.98727 37095 ft 472 kts 125°
2026-04-28 14:22 40.87039 17.05853 37107 ft 472 kts 125°
2026-04-28 14:23 40.83268 17.13020 37104 ft 472 kts 125°
2026-04-28 14:23 40.79539 17.20080 37104 ft 472 kts 125°
2026-04-28 14:24 40.75768 17.27203 37088 ft 472 kts 125°
2026-04-28 14:24 40.72009 17.34298 37079 ft 472 kts 125°
2026-04-28 14:25 40.68268 17.41337 37087 ft 472 kts 125°
2026-04-28 14:25 40.64497 17.48416 37079 ft 472 kts 125°
2026-04-28 14:26 40.60718 17.55488 37073 ft 472 kts 125°
2026-04-28 14:26 40.56940 17.62550 37071 ft 472 kts 125°
2026-04-28 14:27 40.53159 17.69605 37077 ft 472 kts 126°
2026-04-28 14:27 40.49369 17.76660 37079 ft 472 kts 126°
2026-04-28 14:28 40.45596 17.83657 37079 ft 472 kts 126°
2026-04-28 14:28 40.41785 17.90699 37080 ft 472 kts 126°
2026-04-28 14:29 40.37983 17.97725 37073 ft 472 kts 126°
2026-04-28 14:29 40.34184 18.04749 37059 ft 472 kts 126°
2026-04-28 14:30 40.30396 18.11720 37063 ft 472 kts 126°
2026-04-28 14:30 40.26578 18.18720 37064 ft 472 kts 126°
2026-04-28 14:31 40.22757 18.25722 37068 ft 472 kts 126°
2026-04-28 14:31 40.18936 18.32703 37073 ft 472 kts 126°
2026-04-28 14:32 40.15105 18.39680 37079 ft 472 kts 126°
2026-04-28 14:32 40.11260 18.46663 37085 ft 472 kts 126°
2026-04-28 14:33 40.07455 18.53587 37101 ft 472 kts 126°
2026-04-28 14:33 40.03611 18.60557 37094 ft 472 kts 126°
2026-04-28 14:34 39.97826 18.70981 37101 ft 473 kts 126°
2026-04-28 14:35 39.93980 18.77919 37107 ft 473 kts 126°
2026-04-28 14:35 39.90123 18.84857 37105 ft 473 kts 126°
2026-04-28 14:36 39.86254 18.91784 37104 ft 473 kts 126°
2026-04-28 14:36 39.82382 18.98712 37108 ft 473 kts 126°
2026-04-28 14:37 39.78537 19.05598 37112 ft 473 kts 126°
2026-04-28 14:37 39.74672 19.12523 37111 ft 473 kts 126°
2026-04-28 14:38 39.70808 19.19446 37095 ft 473 kts 126°
2026-04-28 14:38 39.66931 19.26359 37092 ft 474 kts 127°
2026-04-28 14:39 39.63033 19.33268 37095 ft 474 kts 127°
2026-04-28 14:39 39.59152 19.40165 37091 ft 474 kts 126°
2026-04-28 14:40 39.55285 19.47028 37107 ft 474 kts 126°
2026-04-28 14:40 39.51381 19.53906 37098 ft 474 kts 127°
2026-04-28 14:41 39.47469 19.60792 37097 ft 474 kts 127°
2026-04-28 14:41 39.43568 19.67684 37093 ft 474 kts 127°
2026-04-28 14:42 39.39658 19.74544 37065 ft 475 kts 127°
2026-04-28 14:42 39.35734 19.81414 37094 ft 475 kts 127°
2026-04-28 14:43 39.31802 19.88282 37098 ft 476 kts 127°
2026-04-28 14:43 39.27884 19.95108 37098 ft 476 kts 127°
2026-04-28 14:44 39.23936 20.01991 37103 ft 476 kts 127°
2026-04-28 14:44 39.19992 20.08851 37099 ft 476 kts 127°
2026-04-28 14:45 39.16035 20.15701 37105 ft 476 kts 127°
2026-04-28 14:45 39.12100 20.22493 37106 ft 476 kts 127°
2026-04-28 14:46 39.08148 20.29370 37099 ft 477 kts 127°
2026-04-28 14:46 39.04223 20.36258 37096 ft 477 kts 127°
2026-04-28 14:47 39.00280 20.43142 37102 ft 478 kts 127°
2026-04-28 14:47 38.96318 20.50013 37102 ft 478 kts 127°
2026-04-28 14:48 38.92355 20.56878 37104 ft 479 kts 127°
2026-04-28 14:48 38.88414 20.63699 37095 ft 479 kts 127°
2026-04-28 14:49 38.84431 20.70556 37093 ft 479 kts 127°
2026-04-28 14:49 38.80406 20.77359 37094 ft 479 kts 128°
2026-04-28 14:50 38.76368 20.84163 37101 ft 479 kts 127°
2026-04-28 14:50 38.72315 20.90994 37096 ft 480 kts 127°
2026-04-28 14:51 38.68296 20.97763 37097 ft 479 kts 127°
2026-04-28 14:51 38.64927 21.03426 37091 ft 480 kts 127°
2026-04-28 14:52 38.60887 21.10209 37090 ft 480 kts 127°
2026-04-28 14:52 38.56831 21.17009 37099 ft 480 kts 127°
2026-04-28 14:53 38.52776 21.23781 37091 ft 480 kts 128°
2026-04-28 14:53 38.48735 21.30516 37089 ft 480 kts 128°
2026-04-28 14:54 38.44667 21.37283 37073 ft 480 kts 128°
2026-04-28 14:54 38.40588 21.44055 37083 ft 481 kts 128°
2026-04-28 14:55 38.36528 21.50795 37083 ft 481 kts 128°
2026-04-28 14:55 38.32437 21.57568 37085 ft 481 kts 128°
2026-04-28 14:56 38.28343 21.64314 37088 ft 481 kts 128°
2026-04-28 14:56 38.24252 21.71045 37091 ft 482 kts 128°
2026-04-28 14:57 38.20175 21.77748 37090 ft 482 kts 128°
2026-04-28 14:57 38.16067 21.84485 36829 ft 481 kts 128°
2026-04-28 14:57 38.14014 21.87848 36576 ft 482 kts 128°
2026-04-28 14:58 38.11955 21.91216 36312 ft 481 kts 128°
2026-04-28 14:58 38.09893 21.94586 36067 ft 481 kts 128°
2026-04-28 14:58 38.07834 21.97944 35816 ft 481 kts 128°